Location: Berg
(48.4333°N, 13.9167°E)
Time: 05:41:05
(UTC+00:00)

Cosmos 1844 - Pass Details

Date: 18 September 2020
Orbit: 824 x 866 km, 70.9° (Epoch: 29 October)

Event Time Altitude Azimuth Distance (km) Brightness Sun altitude
Rises 19:26:31 0° 200° (SSW) 3,412 6.8 -22.4°
Reaches altitude 10° 19:28:58 10° 198° (SSW) 2,475 6.0 -22.7°
Maximum altitude 19:34:38 74° 115° (ESE) 883 3.5 -23.5°
Drops below altitude 10° 19:40:16 10° 31° (NNE) 2,462 6.1 -24.3°
Sets 19:42:43 0° 30° (NNE) 3,394 6.9 -24.7°
